Other Public Products
Issued by NWS Grand Forks, ND

Home | Current Version | Previous Version | Graphics & Text | Print | Product List | Glossary On
Versions: 1 2 3 4 5 6 7 8 9 10 11 12 13 14 15 16 17 18 19 20 21 22 23 24 25 26 27 28 29 30 31 32 33 34 35 36 37 38 39 40 41 42 43 44 45 46 47 48 49 50
000
FPUS83 KFGF 231731
OPUFGF
PRAIRIE TO PINES WEATHER ROUNDUP
NATIONAL WEATHER SERVICE EASTERN NORTH DAKOTA/GRAND FORKS ND
1100 AM CST THU FEB 23 2017

 **SATELLITE DATA USED TO AUGMENT SKY COVER AT AUTOMATED STATIONS**
 *****  WEATHER ACROSS EASTERN NORTH DAKOTA  *****

CITY           SKY/WX    TMP DP  RH WIND       PRES   REMARKS
GRAND FORKS    CLOUDY    28  18  66 NE14      30.07R WCI  17
GRAND FORKS AF CLOUDY    27  21  80 N9        30.08R WCI  17
GRAND CITY NWS NOT AVBL
BUXTON         NOT AVBL
DEVILS LAKE    CLOUDY    26  23  88 NE13      30.06R WCI  15
FARGO          CLOUDY    30  22  72 N15G24    30.05R WCI  19
WAHPETON ARPT  CLOUDY    30  21  69 NE16G24   30.02S WCI  19
$$

 *****  WEATHER ACROSS CENTRAL AND WESTERN NORTH DAKOTA  *****

CITY           SKY/WX    TMP DP  RH WIND       PRES   REMARKS
JAMESTOWN      CLOUDY    30  23  75 NE7       30.01S WCI  23
BISMARCK       CLOUDY    31  24  75 E7        30.03S WCI  24
MINOT          CLOUDY    23  17  78 N13       30.09R WCI  11
MINOT AFB      CLOUDY    21  16  79 NE9       30.09R WCI  11
GARRISON         N/A     23  19  85 NE14G26   30.04R WCI  11
WILLISTON      CLOUDY    27  24  89 N10       30.08R FOG     WCI  17
DICKINSON      LGT SNOW  28  25  88 NE9       29.96S FOG     WCI  19
HETTINGER      CLOUDY    30  25  81 NE13      29.96F HAZE    WCI  20
$$

 *****  OTHER OBSERVATIONS NORTHEAST NORTH DAKOTA  *****

CITY           SKY/WX    TMP DP  RH WIND       PRES   REMARKS
WALHALLA       NOT AVBL
LANGDON        NOT AVBL
CAVALIER         N/A     23  16  74 N12       30.11R WCI  12
GRAFTON        CLOUDY    25  18  74 N14       30.12R WCI  13
CANDO          NOT AVBL
FORT TOTTEN      N/A     28  28  99 N2        29.95S
ROLLA          CLOUDY    19  19 100 N15       30.07R WCI   5
RUGBY            N/A     23  19  86 N9        30.08R WCI  13
 ***** THE ABOVE OBSERVATIONS ARE NON NWS ARE NOT QUALITY
        CONTROLLED AND MAY MIS-REPORT RAIN FOR SNOW...
$$

 *****  OTHER OBSERVATIONS SOUTHEAST NORTH DAKOTA *****

CITY           SKY/WX    TMP DP  RH WIND       PRES   REMARKS
COOPERSTOWN    CLOUDY    30  25  80 NE9       30.03S WCI  22
VALLEY CITY    CLOUDY    28  28 100 NE14G20   30.04S WCI  17
OAKES          NOT AVBL
GWINNER        CLOUDY    30  27  86 N17       30.02S WCI  18
SHEYENNE NWR     N/A     29  21  71 NE14      29.95  WCI  18
BUFFALO        NOT AVBL
WYNDMERE         N/A     30  25  80 N14         N/A  WCI  20
 ***** THE ABOVE OBSERVATIONS ARE NON NWS ARE NOT QUALITY
       CONTROLLED AND MAY MIS-REPORT RAIN FOR SNOW...
$$

  *****  WEATHER ACROSS NORTHERN MINNESOTA  *****

CITY           SKY/WX    TMP DP  RH WIND       PRES   REMARKS
FLAG ISLAND    PTSUNNY   19  10  68 NW21      30.03F WCI   3
WARROAD        CLOUDY    23  12  63 NW10      30.05S WCI  12
ROSEAU         PTSUNNY   23  16  74 N13       30.05S WCI  11
HALLOCK        CLOUDY    25  16  68 N16       30.09R WCI  12
THF RVR FALLS    N/A    N/A N/A N/A MISG        N/A
HALSTAD          N/A     29  23  77 N14         N/A  WCI  19
FOSSTON        CLOUDY    25  19  80 N15       30.04R WCI  12
BAUDETTE       FLURRIES  20  11  68 NW13      30.03S WCI   7
WASKISH        CLOUDY    25  16  68 NW9       30.03R WCI  15
CROOKSTON      CLOUDY    28  21  74 N12       30.07S WCI  18
$$
  *****  WEATHER ACROSS CENTRAL AND WEST MINNESOTA  *****

CITY           SKY/WX    TMP DP  RH WIND       PRES   REMARKS
BEMIDJI        CLOUDY    25  17  72 NW10      30.00S WCI  14
PARK RAPIDS    FAIR      27  16  63 NE9       29.98S WCI  18
WADENA         CLOUDY    25  21  86 NE8       29.98R WCI  16
DETROIT LAKES  CLOUDY    28  23  80 N8        30.01R WCI  20
MOORHEAD       CLOUDY    28  19  69 N17G26    30.04S WCI  16
FERGUS FALLS   PTSUNNY   28  21  74 NE12G17   30.04R WCI  18
ELBOW LAKE     PTSUNNY   27  21  79 NE13      29.99S WCI  16
MORRIS MN      FAIR      32  27  80 N13       29.96S WCI  22
STAPLES        CLOUDY    25  19  80 N12       29.98R WCI  14
WHEATON        CLOUDY    28  21  74 N17       30.03S WCI  16
$$
  *****  WEATHER ELSEWHERE ACROSS MINNESOTA  *****

CITY           SKY/WX    TMP DP  RH WIND       PRES   REMARKS
DULUTH         CLOUDY    25  21  85 NW10      29.93R WCI  15
INTRNTL FALLS  CLOUDY    23  11  60 W14G21    30.00S WCI  11
ELY            FAIR      28  16  59 NW8       29.91F WCI  20
CLOQUET        CLOUDY    25  19  80 N8G18     29.94F WCI  16
BRAINERD       CLOUDY    25  20  81 N13       29.98S WCI  14
HIBBING        PTSUNNY   24  20  84 N17       29.94F WCI  11
ALEXANDRIA     CLOUDY    26  22  84 NE9       29.96R WCI  17
SAINT CLOUD    CLOUDY    27  22  81 N9        29.96S WCI  18
MINNEAPOLIS    PTSUNNY   35  24  64 N9G24     29.93S
$$

  *****  WEATHER ACROSS SOUTH DAKOTA  *****

CITY           SKY/WX    TMP DP  RH WIND       PRES   REMARKS
SIOUX FALLS    CLOUDY    32  26  78 NE18      29.88S WCI  20
BROOKINGS      CLOUDY    29  24  82 NE18G24   29.89R WCI  16
WATERTOWN      CLOUDY    29  23  78 NE21      29.91F WCI  16
HURON          CLOUDY    32  24  72 NE15      29.93F WCI  22
SISSETON         N/A     30  24  78 NE20G26   30.00R WCI  17
ABERDEEN       PTSUNNY   30  22  72 NE16      29.99F WCI  19
MITCHELL       CLOUDY    33  25  72 NE14      29.93R WCI  23
PIERRE         FAIR      32  23  69 NE15      29.93R WCI  22
MOBRIDGE       CLOUDY    32  24  72 NE16      29.95F WCI  21
RAPID CITY     SNOW      26  23  88 NE12      29.89R VSB 1/2 WCI  16
$$

  *****  SOME WEATHER IN NEARBY STATES *****

CITY           SKY/WX    TMP DP  RH WIND       PRES   REMARKS
GLASGOW MT     FAIR      29  24  82 NE16      30.04R WCI  17
GREAT FALLS MT CLOUDY    25  22  88 NE12      29.98R WCI  14
CHEYENNE WY    SNOW      24  21  88 NE12      29.57R VSB 1/4 WCI  13
SCOTTSBLUFF NE HVY SNOW  26  22  84 NE18      29.70R VSB 1/4 WCI  13
OMAHA NE       CLOUDY    40  33  76 NE16G22   29.72F
DES MOINES IA  CLOUDY    43  36  76 E14       29.79F
DAVENPORT IA   FAIR      46  39  76 E12       29.80S
CHICAGO IL     CLOUDY    45  37  73 NE12      29.84R
EAU CLAIRE WI  CLOUDY    38  29  70 N8        29.90S
LA CROSSE WI   CLOUDY    42  32  67 N10       29.87F
$$

  *****  SOME NATIONAL WEATHER *****

CITY           SKY/WX    TMP DP  RH WIND       PRES   REMARKS
LA GUARDIA NY  CLOUDY    56  49  77 SW12      29.88F
RALEIGH NC     FAIR      72  52  49 CALM      29.94F
ATLANTA GA     FAIR      69  57  65 SE8       29.90F
NEW ORLEANS LA FAIR      73  61  65 S6        29.85F
OKLAHOMA CITY  FAIR      72  43  35 S14       29.52F
ALBUQUERQUE NM FAIR      51  16  24 W29G39    29.73R
SALT LAKE CITY FLURRIES  30  25  81 W16       29.77R WCI  19
LOS ANGELES CA FAIR      54  28  36 N15G22    30.10S
BOISE ID       CLOUDY    31  25  78 NW23G29   29.88R WCI  18
SEATTLE WA     CLOUDY    38  35  89 NE6       30.26R
$$

*** WEATHER ACROSS MANITOBA...SASKATCHEWAN AND ONTARIO ***
                ***ONTARIO***

CITY           SKY/WX    TMP DP  RH WIND       PRES   REMARKS
GERALDTON      FLURRIES  18   9  68 NW12G18   29.84R WCI   5
THUNDER BAY    MOSUNNY   30  16  55 W15G23    29.89R WCI  19
SIOUX LOOKOUT  FLURRIES  18   9  68 NW14      29.92S WCI   4
TORONTO        PTSUNNY   63  52  67 SW18G25   29.63R
BIG TROUT LK   LGT SNOW   0  -8  71 N9        29.92R WCI -16
PICKLE LAKE    LGT SNOW   5  -4  66 W13G21    29.89R DRFTSNOWWCI -12
DRYDEN         SUNNY     19   7  58 NW12G18   29.94F WCI   7
KENORA         MOSUNNY   19   7  58 NW13G25   30.00S WCI   7
$$
                *** MANITOBA***

CITY           SKY/WX    TMP DP  RH WIND       PRES   REMARKS
BRANDON        MOSUNNY   23  12  63 N13       30.09R WCI  11
DAUPHIN        MOSUNNY   21  14  73 VRB2      30.11F
ISLAND LAKE    FLURRIES   1  -6  71 N8G17     30.09R WCI -12
PILOT MOUND      N/A     19  16  86 NE6         N/A  WCI  11
THE PAS        MOSUNNY    5  -4  66 N6        30.16S WCI  -6
THOMPSON       MOSUNNY   -8 -15  71 VRB2      30.21R
WINNIPEG       CLOUDY    21  12  68 N15       30.10F WCI   8
LYNN LAKE      SUNNY     -6 -13  71 E3        30.19R
CHURCHILL      PTSUNNY   -8 -13  77 N8        30.31R WCI -23
GILLAM         MOSUNNY   -6 -15  65 N7        30.19R WCI -20
$$
                ***SASKATCHEWAN***

CITY           SKY/WX    TMP DP  RH WIND       PRES   REMARKS
ESTEVAN        PTSUNNY   23  18  80 N3        30.09S
KINDERSLEY     CLOUDY    25  18  74 W8        30.09S WCI  16
LLOYDMINSTER   FLURRIES  16  14  93 CALM      30.08S
PRINCE ALBERT  PTSUNNY   19  12  73 N10       30.10R WCI   8
REGINA         PTSUNNY   27  16  63 W9        30.09F WCI  17
YORKTON        CLOUDY    21  14  73 VRB2      30.07F



USA.gov is the U.S. government's official web portal to all federal, state and local government web resources and services.